Regional Weather Roundup
Issued by NWS

Home | Current Version | Previous Version | Graphics & Text | Print | Product List | Glossary On
Versions: 1 2 3 4 5 6 7 8 9 10 11 12 13 14 15 16 17 18 19 20 21 22 23 24 25 26 27 28 29 30 31 32 33 34 35 36 37 38 39 40 41 42 43 44 45 46 47 48 49 50
828
ASUS44 KLIX 180911
RWRLA
LOUISIANA WEATHER ROUNDUP
NATIONAL WEATHER SERVICE NEW ORLEANS LA
400 AM CDT SAT APR 18 2015

NOTE: "FAIR" INDICATES FEW OR NO CLOUDS BELOW 12,000 FEET WITH NO
      SIGNIFICANT WEATHER AND/OR OBSTRUCTIONS TO VISIBILITY.
      SKY/WX - SKY CONDITION AND SIGNIFICANT WEATHER.
      TMP - AIR TEMPERATURE.    DP   - DEWPOINT TEMPERATURE.
      RH  - RELATIVE HUMIDITY.  PRES - PRESSURE.
      HX  - HEAT INDEX.         WCI  - WIND CHILL INDEX.

*  THESE STATIONS ARE NOT NWS OR FAA STATIONS AND ARE NOT UNDER
   NWS QUALITY CONTROL.

LAZ040-048-061>063-065-066-069-181000-
SOUTHEAST LOUISIANA

CITY           SKY/WX    TMP DP  RH WIND       PRES   REMARKS
N.O. AUDUBON     N/A     73  73 100 MISG        N/A
N.O. INTL ARPT TSTM      74  70  87 N5        29.90F FOG
N.O. LAKEFRONT LGT RAIN  77  69  76 N13       29.91F
SLIDELL        LGT RAIN  71  71 100 N6        29.90F
BATON ROUGE    LGT RAIN  69  67  93 SW5       29.92R
BOOTHVILLE     CLOUDY    71  69  93 SE5       29.88F
BELLE CHASSE   TSTM      72  70  93 CALM      29.90R FOG
BOGALUSA*      DRIZZLE   69  66  89 N3        29.94F
GALLIANO*      TSTM      68  66  96 CALM      29.95R
NEW ROADS*     LGT RAIN  69  68  98 CALM      29.92R
GONZALES*      LGT RAIN  70  70 100 CALM      29.91S
HAMMOND*       DRIZZLE   70  66  88 CALM      29.92F
HOUMA*         TSTM      70  69  97 CALM      29.92R
PORT FOURCHON* CLOUDY    73  72  94 N13       29.94R FOG

$$

LAZ041-044-053-054-181000-
SOUTHWEST LOUISIANA

CITY           SKY/WX    TMP DP  RH WIND       PRES   REMARKS
LAKE CHARLES   CLOUDY    68  67  96 NE6       29.87F
LAFAYETTE      CLOUDY    71  69  93 NE6       29.90F
PATTERSON      CLOUDY    70  68  94 NE6       29.90F
SALT POINT       N/A     70  69  97 CALM      29.91S
NEW IBERIA     LGT RAIN  70  68  93 N12       29.90F
CHENAULT AIRPK CLOUDY    67  66  98 CALM      29.88F

$$

LAZ027-028-181000-
CENTRAL LOUISIANA

CITY           SKY/WX    TMP DP  RH WIND       PRES   REMARKS
FORT POLK      CLOUDY    68  66  95 SE7       29.86F
ALEXANDRIA INT LGT RAIN  69  68  96 SE7       29.88F
ALEXANDRIA     LGT RAIN  68  67  96 E3        29.90F

$$

LAZ001-002-181000-
NORTHWEST LOUISIANA

CITY           SKY/WX    TMP DP  RH WIND       PRES   REMARKS
SHREVEPORT     CLOUDY    69  66  90 CALM      29.90F
BARKSDALE AFB  LGT RAIN  68  64  88 S5        29.91F
DTN SHREVEPORT CLOUDY    68  64  87 E5        29.91F

$$

LAZ014-016-181000-
NORTHEAST LOUISIANA

CITY           SKY/WX    TMP DP  RH WIND       PRES   REMARKS
MONROE         CLOUDY    67  65  93 CALM      29.94F
TALLULAH       CLOUDY    67  64  90 SE6       29.95R

$$




USA.gov is the U.S. government's official web portal to all federal, state and local government web resources and services.